Ionia, MI

12:03 PM EST on November 13, 2019 (GMT -0500)
Ionia

Weather History for KY70 - September, 2019

Change the Weather History Date:

Monday, September 16, 2019

  Actual Average (WUND) Record (WUND)
Temperature  
Mean Temperature 70 °F -  
Max Temperature 77 °F - - (-1)
Min Temperature 63 °F - - (-1)
Cooling Degree Days 5    
Growing Degree Days 20 (Base 50)    
Moisture  
Dew Point 63 °F    
Average Humidity 82    
Maximum Humidity 96    
Minimum Humidity 52    
Precipitation  
Precipitation 0.00 in - - ()
Sea Level Pressure  
Sea Level Pressure 30.10 in    
Wind  
Wind Speed 2 mph ()    
Max Wind Speed 8 mph    
Max Gust Speed -    
Visibility 8.6 miles    
Events      
Averages and records for this station are not official NWS values.
T = Trace of Precipitation, MM = Missing Value Source: Averaged Metar Reports

Daily Weather History Graph

Daily Weather History Graph

Search for Another Location

Airport or City:

Astronomy

Sep. 16, 2019 Rise Set
Actual Time 7:20 AM EDT 7:48 PM EDT
Civil Twilight 6:52 AM EDT 8:17 PM EDT
Nautical Twilight 6:18 AM EDT 8:50 PM EDT
Astronomical Twilight 5:44 AM EDT 9:25 PM EDT
Moon 9:20 PM EDT (9/16) 9:29 AM EDT (9/16)
Length of Visible Light 13h 24m
Length of Day
12h 27m
Waning Gibbous, 94% of the Moon is Illuminated
Sep 16
Waning Gibbous
Sep 21
Last Quarter
Sep 28
New
Oct 5
First Quarter
Oct 13
Full

Hourly Weather History & Observations

Time (EDT) Temp. Dew Point Humidity Pressure Visibility Wind Dir Wind Speed Gust Speed Precip Events Conditions
12:15 AM 67.3 °F 65.7 °F 95% 30.04 in 10.0 mi East 4.6 mph - N/A   Overcast
12:16 AM 67.3 °F 65.7 °F 95% 30.04 in 10.0 mi East 4.6 mph - N/A   Overcast
12:35 AM 67.3 °F 65.8 °F 95% 30.04 in 10.0 mi Calm Calm - N/A   Overcast
12:59 AM 67.3 °F 66.0 °F 96% 30.04 in 10.0 mi Calm Calm - N/A   Overcast
1:17 AM 67.3 °F 65.8 °F 95% 30.04 in 7.0 mi Calm Calm - N/A   Overcast
1:35 AM 67.6 °F 66.2 °F 95% 30.04 in 10.0 mi Calm Calm - N/A   Overcast
1:36 AM 67.6 °F 66.2 °F 95% 30.04 in 10.0 mi Calm Calm - N/A   Overcast
1:55 AM 68.2 °F 66.4 °F 94% 30.04 in 10.0 mi Calm Calm - N/A   Overcast
2:15 AM 67.6 °F 66.2 °F 95% 30.04 in 7.0 mi Calm Calm - N/A   Overcast
2:38 AM 66.7 °F 65.3 °F 95% 30.04 in 4.0 mi Calm Calm - N/A   Overcast
2:56 AM 66.7 °F 65.3 °F 95% 30.04 in 5.0 mi North 3.5 mph - N/A   Overcast
3:15 AM 66.6 °F 65.3 °F 96% 30.04 in 5.0 mi Calm Calm - N/A   Overcast
3:16 AM 66.7 °F 65.3 °F 95% 30.04 in 5.0 mi Calm Calm - N/A   Overcast
3:35 AM 67.1 °F 65.7 °F 95% 30.05 in 7.0 mi Calm Calm - N/A   Overcast
4:17 AM 66.7 °F 65.3 °F 95% 30.04 in 5.0 mi Calm Calm - N/A   Overcast
4:35 AM 66.7 °F 65.3 °F 95% 30.05 in 5.0 mi North 3.5 mph - N/A   Overcast
4:36 AM 66.7 °F 65.3 °F 95% 30.05 in 5.0 mi Calm Calm - N/A   Overcast
4:55 AM 67.5 °F 66.2 °F 96% 30.06 in 7.0 mi Calm Calm - N/A   Overcast
4:56 AM 67.6 °F 66.2 °F 95% 30.06 in 7.0 mi Calm Calm - N/A   Overcast
5:15 AM 67.1 °F 65.5 °F 95% 30.06 in 7.0 mi Calm Calm - N/A   Overcast
5:37 AM 67.1 °F 65.5 °F 95% 30.06 in 5.0 mi North 3.5 mph - N/A   Overcast
5:56 AM 66.7 °F 65.3 °F 95% 30.07 in 5.0 mi North 3.5 mph - N/A   Overcast
6:35 AM 65.8 °F 64.6 °F 96% 30.07 in 3.0 mi NNE 3.5 mph - N/A   Overcast
6:58 AM 66.0 °F 64.8 °F 96% 30.07 in 2.5 mi NE 3.5 mph - N/A   Overcast
7:16 AM 66.2 °F 64.9 °F 96% 30.08 in 2.5 mi Calm Calm - N/A   Overcast
7:35 AM 66.2 °F 64.9 °F 96% 30.09 in 2.0 mi Calm Calm - N/A   Overcast
7:55 AM 66.4 °F 65.1 °F 96% 30.10 in 2.5 mi NNE 3.5 mph - N/A   Overcast
8:19 AM 66.2 °F 64.8 °F 95% 30.10 in 5.0 mi NNE 5.8 mph - N/A   Overcast
8:37 AM 66.2 °F 64.8 °F 95% 30.11 in 7.0 mi NNE 4.6 mph - N/A   Overcast
8:55 AM 66.2 °F 64.6 °F 94% 30.11 in 7.0 mi NNE 4.6 mph - N/A   Overcast
8:56 AM 66.2 °F 64.6 °F 94% 30.11 in 7.0 mi NNE 4.6 mph - N/A   Overcast
9:15 AM 66.2 °F 64.8 °F 95% 30.12 in 7.0 mi NNE 3.5 mph - N/A   Overcast
9:16 AM 66.2 °F 64.8 °F 95% 30.12 in 7.0 mi Calm Calm - N/A   Overcast
9:35 AM 66.6 °F 64.9 °F 95% 30.12 in 10.0 mi NNE 3.5 mph - N/A   Overcast
9:40 AM 66.6 °F 64.9 °F 95% 30.12 in 10.0 mi NE 3.5 mph - N/A   Overcast
9:58 AM 67.1 °F 64.8 °F 92% 30.12 in 10.0 mi NNE 5.8 mph - N/A   Overcast
10:35 AM 68.2 °F 65.3 °F 90% 30.13 in 10.0 mi NE 3.5 mph - N/A   Overcast
10:55 AM 68.4 °F 64.6 °F 88% 30.13 in 10.0 mi NE 3.5 mph - N/A   Overcast
10:56 AM 68.5 °F 64.8 °F 88% 30.13 in 10.0 mi ENE 3.5 mph - N/A   Overcast
11:19 AM 69.6 °F 64.6 °F 84% 30.13 in 10.0 mi Calm Calm - N/A   Overcast
11:37 AM 70.2 °F 64.4 °F 82% 30.13 in 10.0 mi Calm Calm - N/A   Overcast
11:56 AM 71.1 °F 64.0 °F 78% 30.12 in 10.0 mi Calm Calm - N/A   Overcast
12:15 PM 71.6 °F 64.0 °F 77% 30.12 in 10.0 mi ENE 3.5 mph - N/A   Overcast
12:16 PM 71.6 °F 63.9 °F 76% 30.12 in 10.0 mi Calm Calm - N/A   Overcast
12:35 PM 71.8 °F 62.6 °F 73% 30.12 in 10.0 mi Calm Calm - N/A   Overcast
12:36 PM 71.8 °F 62.6 °F 73% 30.12 in 10.0 mi Calm Calm - N/A   Overcast
12:55 PM 72.3 °F 63.0 °F 72% 30.12 in 10.0 mi Calm Calm - N/A   Overcast
1:18 PM 72.7 °F 62.1 °F 69% 30.13 in 10.0 mi Calm Calm - N/A   Overcast
1:36 PM 73.0 °F 62.2 °F 69% 30.13 in 10.0 mi Calm Calm - N/A   Overcast
1:55 PM 74.3 °F 62.6 °F 67% 30.12 in 10.0 mi NW 3.5 mph - N/A   Overcast
2:15 PM 73.9 °F 63.3 °F 69% 30.12 in 10.0 mi West 3.5 mph - N/A   Overcast
2:16 PM 74.3 °F 63.7 °F 69% 30.12 in 10.0 mi West 3.5 mph - N/A   Overcast
2:39 PM 73.9 °F 62.4 °F 67% 30.12 in 10.0 mi Calm Calm - N/A   Overcast
2:57 PM 75.4 °F 62.6 °F 64% 30.12 in 10.0 mi Calm Calm - N/A   Scattered Clouds
3:15 PM 77.4 °F 62.2 °F 59% 30.11 in 10.0 mi NW 4.6 mph - N/A   Mostly Cloudy
3:35 PM 76.1 °F 60.3 °F 58% 30.10 in 10.0 mi NE 4.6 mph - N/A   Mostly Cloudy
3:55 PM 75.7 °F 59.0 °F 56% 30.10 in 10.0 mi NNW 3.5 mph - N/A   Scattered Clouds
4:00 PM 77.4 °F 59.0 °F 53% 30.10 in 10.0 mi North 8.1 mph - N/A   Scattered Clouds
4:36 PM 77.4 °F 58.3 °F 52% 30.10 in 10.0 mi North 4.6 mph - N/A   Scattered Clouds
4:55 PM 76.3 °F 58.5 °F 54% 30.10 in 10.0 mi North 4.6 mph - N/A   Scattered Clouds
4:56 PM 76.1 °F 58.6 °F 55% 30.10 in 10.0 mi North 4.6 mph - N/A   Scattered Clouds
5:15 PM 77.2 °F 59.2 °F 54% 30.10 in 10.0 mi North 3.5 mph - N/A   Clear
5:57 PM 77.4 °F 58.3 °F 52% 30.10 in 10.0 mi North 4.6 mph - N/A   Scattered Clouds
6:15 PM 77.2 °F 59.5 °F 54% 30.10 in 10.0 mi NE 4.6 mph - N/A   Scattered Clouds
6:35 PM 76.5 °F 59.2 °F 55% 30.10 in 10.0 mi NE 3.5 mph - N/A   Scattered Clouds
6:36 PM 76.5 °F 59.4 °F 55% 30.10 in 10.0 mi NE 3.5 mph - N/A   Scattered Clouds
6:55 PM 75.7 °F 60.3 °F 59% 30.10 in 10.0 mi Calm Calm - N/A   Clear
7:00 PM 75.4 °F 60.1 °F 59% 30.11 in 10.0 mi Calm Calm - N/A   Clear
7:18 PM 74.5 °F 60.6 °F 62% 30.11 in 10.0 mi NNE 5.8 mph - N/A   Clear
7:36 PM 71.8 °F 61.3 °F 70% 30.11 in 10.0 mi NE 4.6 mph - N/A   Clear
7:55 PM 71.2 °F 61.7 °F 72% 30.11 in 10.0 mi Calm Calm - N/A   Clear
8:15 PM 68.7 °F 63.0 °F 82% 30.12 in 10.0 mi NE 3.5 mph - N/A   Clear
8:16 PM 68.5 °F 63.0 °F 82% 30.12 in 10.0 mi Calm Calm - N/A   Clear
8:39 PM 67.3 °F 63.5 °F 88% 30.12 in 10.0 mi NNE 3.5 mph - N/A   Clear
8:57 PM 66.4 °F 63.1 °F 89% 30.13 in 10.0 mi NNE 4.6 mph - N/A   Clear
9:15 PM 65.8 °F 63.0 °F 90% 30.13 in 10.0 mi NE 4.6 mph - N/A   Clear
9:35 PM 66.7 °F 62.6 °F 86% 30.13 in 10.0 mi NNE 3.5 mph - N/A   Clear
9:36 PM 66.7 °F 62.6 °F 86% 30.13 in 10.0 mi NNE 3.5 mph - N/A   Clear
9:55 PM 65.5 °F 62.1 °F 89% 30.13 in 10.0 mi NNE 3.5 mph - N/A   Clear
10:18 PM 63.9 °F 61.9 °F 93% 30.14 in 10.0 mi NE 4.6 mph - N/A   Clear
10:36 PM 63.5 °F 61.3 °F 93% 30.14 in 10.0 mi ENE 6.9 mph - N/A   Clear
10:55 PM 65.8 °F 62.2 °F 88% 30.14 in 10.0 mi ENE 4.6 mph - N/A   Clear
10:56 PM 65.8 °F 62.2 °F 88% 30.14 in 10.0 mi East 5.8 mph - N/A   Clear
11:15 PM 65.3 °F 62.1 °F 89% 30.15 in 10.0 mi ENE 5.8 mph - N/A   Clear
11:39 PM 64.6 °F 61.9 °F 91% 30.15 in 10.0 mi ENE 6.9 mph - N/A   Clear
11:57 PM 64.0 °F 61.9 °F 93% 30.15 in 10.0 mi ENE 5.8 mph - N/A   Clear